Home   Weather   Niagara Falls   Past weeks

Flag for Canada Past Weather in Niagara Falls, Ontario, Canada — Yesterday and Last 2 Weeks

Now
69 °F

Sunny.


Feels Like: 69 °F
Forecast: N/A
Wind: 9 mph from Northeast

Location: Niagara Falls International Airport

Current Time: Apr 26, 2017 at 7:42:16 pm

Latest Report: Apr 26, 2017 at 6:53 pm


Visibility: 10 mi

Pressure: 29.67 "Hg

Humidity: 61%

Dew Point: 55 °F

Location of Niagara FallsLocation

Past Weather in Niagara Falls — Graph

°F

Niagara Falls Temperature Yesterday

Maximum temperature yesterday: 65 °F (at 5:53 pm)
Minimum temperature yesterday: 44 °F (at 2:53 am)
Average temperature yesterday: 55 °F

High & Low Weather Summary for the Past Weeks

 TemperatureHumidityPressure
High74 °F (Apr 16, 10:53 am)93% (Apr 21, 12:53 am)30.55 "Hg (Apr 21, 12:53 am)
Low32 °F (Apr 13, 5:53 am)22% (Apr 14, 1:53 pm)29.66 "Hg (Apr 26, 5:53 pm)
Average52 °F66%30.08 "Hg
* Reported Apr 11 5:14 pm — Apr 26 5:53 pm, Niagara Falls, Weather by CustomWeather, © 2017

Note: Actual official high and low records may vary slightly from our data, if they occured in-between our weather recording intervals... More about our weather records

Advertising

Niagara Falls Weather History for the Previous 24 Hours

Scroll right to see more
 ConditionsComfort  
Time TempWeatherWind HumidityBarometerVisibility
5:53 pm
Wed, Apr 26
71 °FSunny.9 mph59%29.66 "Hg10 mi
4:53 pm71 °FSunny.12 mph61%29.67 "Hg10 mi
3:53 pm72 °FSunny.No wind57%29.70 "Hg10 mi
2:53 pm69 °FSunny.9 mph61%29.72 "Hg10 mi
1:53 pm66 °FPartly sunny.8 mph63%29.75 "Hg10 mi
12:53 pm63 °FOvercast.8 mph68%29.77 "Hg10 mi
11:53 am64 °FOvercast.3 mph65%29.78 "Hg10 mi
10:53 am64 °FOvercast.3 mph63%29.79 "Hg10 mi
9:53 am61 °FOvercast.No wind72%29.80 "Hg10 mi
8:53 am59 °FOvercast.6 mph78%29.79 "Hg10 mi
7:53 am55 °FOvercast.7 mph83%29.79 "Hg10 mi
6:53 am51 °FSunny.5 mph86%29.79 "Hg10 mi
5:53 am52 °FClear.No wind86%29.78 "Hg10 mi
4:53 am54 °FPassing clouds.5 mph83%29.78 "Hg10 mi
3:53 am56 °FOvercast.7 mph81%29.79 "Hg10 mi
2:53 am56 °FPassing clouds.6 mph84%29.80 "Hg10 mi
1:53 am58 °FMostly cloudy.6 mph81%29.82 "Hg10 mi
12:53 am60 °FOvercast.7 mph75%29.82 "Hg10 mi
11:53 pm
Tue, Apr 25
61 °FMostly cloudy.7 mph72%29.83 "Hg10 mi
10:53 pm62 °FOvercast.10 mph67%29.84 "Hg10 mi
9:53 pm63 °FPassing clouds.12 mph65%29.84 "Hg10 mi
8:53 pm63 °FPassing clouds.10 mph65%29.84 "Hg10 mi
7:53 pm64 °FPartly sunny.14 mph65%29.83 "Hg10 mi
Weather by CustomWeather, © 2017

See weather overviewHow to use our weather pages